Time,TemperatureF,DewpointF,PressureIn,WindDirection,WindDirectionDegrees,WindSpeedMPH,WindSpeedGustMPH,Humidity,HourlyPrecipIn,Conditions,Clouds,dailyrainin,SoftwareType,DateUTC
2013-01-03 00:00:00,23.3,15.3,30.12,WNW,291,0.0,0.0,71,0.00,,CLR,0.00,VWS V14.01,2013-01-03 05:00:00,
2013-01-03 00:03:00,23.5,15.5,30.12,WNW,291,0.0,0.0,71,0.00,,CLR,0.00,VWS V14.01,2013-01-03 05:03:00,
2013-01-03 00:08:00,23.5,15.5,30.12,WNW,291,0.0,0.0,71,0.00,,CLR,0.00,VWS V14.01,2013-01-03 05:08:00,
2013-01-03 00:13:00,23.3,15.3,30.12,WNW,291,0.0,0.0,71,0.00,,CLR,0.00,VWS V14.01,2013-01-03 05:13:00,
2013-01-03 00:18:00,23.3,15.6,30.12,WNW,291,0.0,0.0,72,0.00,,CLR,0.00,VWS V14.01,2013-01-03 05:18:00,
2013-01-03 00:23:00,23.3,15.6,30.12,WNW,291,0.0,0.0,72,0.00,,CLR,0.00,VWS V14.01,2013-01-03 05:23:00,
2013-01-03 00:28:00,23.5,15.5,30.12,WNW,291,0.0,2.0,71,0.00,,CLR,0.00,VWS V14.01,2013-01-03 05:28:00,
2013-01-03 00:33:00,23.6,15.6,30.12,WNW,291,0.0,0.0,71,0.00,,CLR,0.00,VWS V14.01,2013-01-03 05:33:00,
2013-01-03 00:38:00,23.9,15.6,30.12,WNW,292,1.0,2.0,70,0.00,,CLR,0.00,VWS V14.01,2013-01-03 05:38:00,
2013-01-03 00:43:00,24.5,15.5,30.12,WNW,300,0.0,0.0,68,0.00,,CLR,0.00,VWS V14.01,2013-01-03 05:43:00,
2013-01-03 00:48:00,24.8,15.4,30.12,WNW,292,0.0,6.0,67,0.00,,CLR,0.00,VWS V14.01,2013-01-03 05:48:00,
2013-01-03 00:53:00,25.0,15.3,30.12,NW,316,0.0,2.0,66,0.00,,CLR,0.00,VWS V14.01,2013-01-03 05:53:00,
2013-01-03 00:58:00,25.0,15.3,30.12,NW,307,4.0,4.0,66,0.00,,CLR,0.00,VWS V14.01,2013-01-03 05:58:00,
2013-01-03 01:03:00,25.1,15.0,30.12,NW,307,0.0,5.0,65,0.00,,CLR,0.00,VWS V14.01,2013-01-03 06:03:00,
2013-01-03 01:08:00,25.3,14.8,30.12,WNW,303,0.0,5.0,64,0.00,,CLR,0.00,VWS V14.01,2013-01-03 06:08:00,
2013-01-03 01:13:00,25.4,14.9,30.12,NW,309,0.0,3.0,64,0.00,,CLR,0.00,VWS V14.01,2013-01-03 06:13:00,
2013-01-03 01:18:00,25.3,14.8,30.12,NW,317,0.0,1.0,64,0.00,,CLR,0.00,VWS V14.01,2013-01-03 06:18:00,
2013-01-03 01:23:00,25.3,14.8,30.12,NW,317,0.0,0.0,64,0.00,,CLR,0.00,VWS V14.01,2013-01-03 06:23:00,
2013-01-03 01:28:00,25.1,14.6,30.12,West,272,0.0,1.0,64,0.00,,CLR,0.00,VWS V14.01,2013-01-03 06:28:00,
2013-01-03 01:33:00,25.1,14.6,30.12,West,276,0.0,0.0,64,0.00,,CLR,0.00,VWS V14.01,2013-01-03 06:33:00,
2013-01-03 01:38:00,25.1,14.6,30.11,West,276,0.0,0.0,64,0.00,,CLR,0.00,VWS V14.01,2013-01-03 06:38:00,
2013-01-03 01:43:00,25.0,14.9,30.11,West,276,0.0,1.0,65,0.00,,CLR,0.00,VWS V14.01,2013-01-03 06:43:00,
2013-01-03 01:48:00,25.0,14.9,30.11,West,276,0.0,1.0,65,0.00,,CLR,0.00,VWS V14.01,2013-01-03 06:48:00,
2013-01-03 01:53:00,24.8,14.7,30.11,NW,311,0.0,1.0,65,0.00,,CLR,0.00,VWS V14.01,2013-01-03 06:53:00,
2013-01-03 01:58:00,24.8,15.1,30.11,NW,310,0.0,1.0,66,0.00,,CLR,0.00,VWS V14.01,2013-01-03 06:58:00,
2013-01-03 02:03:00,24.8,14.7,30.11,NW,310,0.0,0.0,65,0.00,,CLR,0.00,VWS V14.01,2013-01-03 07:03:00,
2013-01-03 02:08:00,24.8,15.1,30.13,NW,310,0.0,0.0,66,0.00,,CLR,0.00,VWS V14.01,2013-01-03 07:08:00,
2013-01-03 02:13:00,24.7,15.0,30.13,NW,311,0.0,0.0,66,0.00,,CLR,0.00,VWS V14.01,2013-01-03 07:13:00,
2013-01-03 02:18:00,24.7,15.0,30.13,NW,311,0.0,0.0,66,0.00,,CLR,0.00,VWS V14.01,2013-01-03 07:18:00,
2013-01-03 02:23:00,24.7,15.0,30.12,NW,311,0.0,0.0,66,0.00,,CLR,0.00,VWS V14.01,2013-01-03 07:23:00,
2013-01-03 02:28:00,24.7,15.3,30.12,NW,318,0.0,2.0,67,0.00,,CLR,0.00,VWS V14.01,2013-01-03 07:28:00,
2013-01-03 02:33:00,24.7,15.0,30.12,NW,318,0.0,0.0,66,0.00,,CLR,0.00,VWS V14.01,2013-01-03 07:33:00,
2013-01-03 02:38:00,24.7,15.0,30.12,NW,318,0.0,0.0,66,0.00,,CLR,0.00,VWS V14.01,2013-01-03 07:38:00,
2013-01-03 02:43:00,24.8,15.1,30.12,NW,318,1.0,1.0,66,0.00,,CLR,0.00,VWS V14.01,2013-01-03 07:43:00,
2013-01-03 02:48:00,24.8,14.7,30.12,NW,315,1.0,2.0,65,0.00,,CLR,0.00,VWS V14.01,2013-01-03 07:48:00,
2013-01-03 02:53:00,25.0,14.9,30.12,WNW,285,0.0,2.0,65,0.00,,CLR,0.00,VWS V14.01,2013-01-03 07:53:00,
2013-01-03 02:58:00,25.0,14.9,30.12,NW,305,0.0,3.0,65,0.00,,CLR,0.00,VWS V14.01,2013-01-03 07:58:00,
2013-01-03 03:03:00,25.0,14.9,30.12,NW,326,0.0,1.0,65,0.00,,CLR,0.00,VWS V14.01,2013-01-03 08:03:00,
2013-01-03 03:08:00,24.8,14.7,30.12,NW,304,0.0,1.0,65,0.00,,CLR,0.00,VWS V14.01,2013-01-03 08:08:00,
2013-01-03 03:13:00,24.8,14.7,30.12,NW,304,0.0,0.0,65,0.00,,CLR,0.00,VWS V14.01,2013-01-03 08:13:00,
2013-01-03 03:18:00,24.7,14.6,30.12,WNW,303,0.0,2.0,65,0.00,,CLR,0.00,VWS V14.01,2013-01-03 08:18:00,
2013-01-03 03:23:00,24.5,14.4,30.11,NW,310,0.0,2.0,65,0.00,,CLR,0.00,VWS V14.01,2013-01-03 08:23:00,
2013-01-03 03:28:00,24.4,14.3,30.11,NW,310,0.0,0.0,65,0.00,,CLR,0.00,VWS V14.01,2013-01-03 08:28:00,
2013-01-03 03:33:00,24.2,14.5,30.11,NW,310,0.0,1.0,66,0.00,,CLR,0.00,VWS V14.01,2013-01-03 08:33:00,
2013-01-03 03:38:00,24.1,14.4,30.11,NW,310,0.0,1.0,66,0.00,,CLR,0.00,VWS V14.01,2013-01-03 08:38:00,
2013-01-03 03:43:00,23.8,14.1,30.11,NW,306,0.0,2.0,66,0.00,,CLR,0.00,VWS V14.01,2013-01-03 08:43:00,
2013-01-03 03:48:00,23.6,14.3,30.11,NW,306,0.0,0.0,67,0.00,,CLR,0.00,VWS V14.01,2013-01-03 08:48:00,
2013-01-03 03:53:00,23.6,14.3,30.11,NW,306,0.0,0.0,67,0.00,,CLR,0.00,VWS V14.01,2013-01-03 08:53:00,
2013-01-03 03:58:00,23.5,14.5,30.11,NW,306,1.0,1.0,68,0.00,,CLR,0.00,VWS V14.01,2013-01-03 08:58:00,
2013-01-03 04:03:00,23.3,14.0,30.11,NW,306,0.0,1.0,67,0.00,,CLR,0.00,VWS V14.01,2013-01-03 09:03:00,
2013-01-03 04:08:00,23.2,14.2,30.10,NW,306,0.0,0.0,68,0.00,,CLR,0.00,VWS V14.01,2013-01-03 09:08:00,
2013-01-03 04:13:00,23.2,14.2,30.10,NW,306,0.0,0.0,68,0.00,,CLR,0.00,VWS V14.01,2013-01-03 09:13:00,
2013-01-03 04:18:00,23.0,14.0,30.10,NW,306,0.0,0.0,68,0.00,,CLR,0.00,VWS V14.01,2013-01-03 09:18:00,
2013-01-03 04:23:00,22.9,13.9,30.10,NW,306,0.0,0.0,68,0.00,,CLR,0.00,VWS V14.01,2013-01-03 09:23:00,
2013-01-03 04:28:00,22.7,14.4,30.10,NW,306,0.0,0.0,70,0.00,,CLR,0.00,VWS V14.01,2013-01-03 09:28:00,
2013-01-03 04:33:00,22.5,14.2,30.10,NW,306,0.0,0.0,70,0.00,,CLR,0.00,VWS V14.01,2013-01-03 09:33:00,
2013-01-03 04:38:00,22.5,14.5,30.11,NW,306,0.0,0.0,71,0.00,,CLR,0.00,VWS V14.01,2013-01-03 09:38:00,
2013-01-03 04:43:00,22.4,14.8,30.11,NW,306,0.0,0.0,72,0.00,,CLR,0.00,VWS V14.01,2013-01-03 09:43:00,
2013-01-03 04:48:00,22.2,14.6,30.11,NW,306,0.0,0.0,72,0.00,,CLR,0.00,VWS V14.01,2013-01-03 09:48:00,
2013-01-03 04:54:00,22.1,14.8,30.10,NW,306,0.0,0.0,73,0.00,,CLR,0.00,VWS V14.01,2013-01-03 09:54:00,
2013-01-03 04:59:00,21.9,14.6,30.10,NW,306,0.0,0.0,73,0.00,,CLR,0.00,VWS V14.01,2013-01-03 09:59:00,
2013-01-03 05:03:00,21.8,14.5,30.10,NW,306,0.0,0.0,73,0.00,,CLR,0.00,VWS V14.01,2013-01-03 10:03:00,
2013-01-03 05:09:00,21.6,14.6,30.10,NW,306,0.0,0.0,74,0.00,,CLR,0.00,VWS V14.01,2013-01-03 10:09:00,
2013-01-03 05:14:00,21.4,14.4,30.10,NW,306,0.0,0.0,74,0.00,,CLR,0.00,VWS V14.01,2013-01-03 10:14:00,
2013-01-03 05:19:00,21.3,14.6,30.10,NW,306,0.0,0.0,75,0.00,,CLR,0.00,VWS V14.01,2013-01-03 10:19:00,
2013-01-03 05:24:00,21.3,14.6,30.11,NW,306,0.0,0.0,75,0.00,,CLR,0.00,VWS V14.01,2013-01-03 10:24:00,
2013-01-03 05:29:00,21.3,14.9,30.11,NW,306,0.0,0.0,76,0.00,,CLR,0.00,VWS V14.01,2013-01-03 10:29:00,
2013-01-03 05:34:00,21.3,14.9,30.11,NW,306,0.0,0.0,76,0.00,,CLR,0.00,VWS V14.01,2013-01-03 10:34:00,
2013-01-03 05:39:00,21.3,14.9,30.11,NW,306,0.0,0.0,76,0.00,,CLR,0.00,VWS V14.01,2013-01-03 10:39:00,
2013-01-03 05:44:00,21.3,14.9,30.11,NW,306,0.0,0.0,76,0.00,,CLR,0.00,VWS V14.01,2013-01-03 10:44:00,
2013-01-03 05:49:00,21.3,14.9,30.11,NW,306,0.0,0.0,76,0.00,,CLR,0.00,VWS V14.01,2013-01-03 10:49:00,
2013-01-03 05:54:00,21.3,14.9,30.10,NW,306,0.0,0.0,76,0.00,,CLR,0.00,VWS V14.01,2013-01-03 10:54:00,
2013-01-03 05:59:00,21.3,14.9,30.10,NW,306,0.0,0.0,76,0.00,,CLR,0.00,VWS V14.01,2013-01-03 10:59:00,
2013-01-03 06:04:00,21.1,14.7,30.10,NW,306,0.0,0.0,76,0.00,,CLR,0.00,VWS V14.01,2013-01-03 11:04:00,
2013-01-03 06:09:00,21.1,14.7,30.11,NW,306,0.0,0.0,76,0.00,,CLR,0.00,VWS V14.01,2013-01-03 11:09:00,
2013-01-03 06:14:00,21.1,15.0,30.11,NW,306,0.0,0.0,77,0.00,,CLR,0.00,VWS V14.01,2013-01-03 11:14:00,
2013-01-03 06:19:00,21.1,14.7,30.11,NW,306,0.0,0.0,76,0.00,,CLR,0.00,VWS V14.01,2013-01-03 11:19:00,
2013-01-03 06:24:00,21.1,14.7,30.10,NW,306,0.0,0.0,76,0.00,,CLR,0.00,VWS V14.01,2013-01-03 11:24:00,
2013-01-03 06:29:00,21.1,15.0,30.10,NW,306,0.0,0.0,77,0.00,,CLR,0.00,VWS V14.01,2013-01-03 11:29:00,
2013-01-03 06:34:00,21.1,15.3,30.10,NW,306,0.0,0.0,78,0.00,,CLR,0.00,VWS V14.01,2013-01-03 11:34:00,
2013-01-03 06:39:00,21.0,15.2,30.11,NW,306,0.0,0.0,78,0.00,,CLR,0.00,VWS V14.01,2013-01-03 11:39:00,
2013-01-03 06:44:00,20.8,15.0,30.11,NW,306,0.0,0.0,78,0.00,,CLR,0.00,VWS V14.01,2013-01-03 11:44:00,
2013-01-03 06:49:00,20.8,15.3,30.11,NW,306,0.0,0.0,79,0.00,,CLR,0.00,VWS V14.01,2013-01-03 11:49:00,
2013-01-03 06:54:00,20.6,15.1,30.11,NW,306,0.0,0.0,79,0.00,,CLR,0.00,VWS V14.01,2013-01-03 11:54:00,
2013-01-03 06:59:00,20.3,14.8,30.11,NW,306,0.0,0.0,79,0.00,,CLR,0.00,VWS V14.01,2013-01-03 11:59:00,
2013-01-03 07:04:00,20.2,14.7,30.11,NW,306,0.0,0.0,79,0.00,,CLR,0.00,VWS V14.01,2013-01-03 12:04:00,
2013-01-03 07:09:00,20.0,14.6,30.12,NW,306,0.0,0.0,79,0.00,,CLR,0.00,VWS V14.01,2013-01-03 12:09:00,
2013-01-03 07:14:00,19.9,14.4,30.12,NW,306,0.0,0.0,79,0.00,,CLR,0.00,VWS V14.01,2013-01-03 12:14:00,
2013-01-03 07:19:00,19.9,14.7,30.12,NW,306,0.0,0.0,80,0.00,,CLR,0.00,VWS V14.01,2013-01-03 12:19:00,
2013-01-03 07:24:00,19.9,14.7,30.12,NW,306,0.0,0.0,80,0.00,,CLR,0.00,VWS V14.01,2013-01-03 12:24:00,
2013-01-03 07:29:00,19.9,15.0,30.12,NW,306,0.0,0.0,81,0.00,,CLR,0.00,VWS V14.01,2013-01-03 12:29:00,
2013-01-03 07:34:00,19.9,15.0,30.12,NW,306,0.0,0.0,81,0.00,,CLR,0.00,VWS V14.01,2013-01-03 12:34:00,
2013-01-03 07:39:00,19.9,15.0,30.12,NW,306,0.0,0.0,81,0.00,,CLR,0.00,VWS V14.01,2013-01-03 12:39:00,
2013-01-03 07:44:00,19.9,15.0,30.12,NW,306,0.0,0.0,81,0.00,,CLR,0.00,VWS V14.01,2013-01-03 12:44:00,
2013-01-03 07:49:00,19.9,15.0,30.12,NW,306,0.0,0.0,81,0.00,,CLR,0.00,VWS V14.01,2013-01-03 12:49:00,
2013-01-03 07:54:00,20.0,15.4,30.12,NW,306,0.0,0.0,82,0.00,,CLR,0.00,VWS V14.01,2013-01-03 12:54:00,
2013-01-03 07:59:00,20.3,15.4,30.12,NW,306,0.0,0.0,81,0.00,,CLR,0.00,VWS V14.01,2013-01-03 12:59:00,
2013-01-03 08:04:00,20.6,15.7,30.12,NW,306,0.0,1.0,81,0.00,,CLR,0.00,VWS V14.01,2013-01-03 13:04:00,
2013-01-03 08:09:00,20.8,15.6,30.12,NW,306,0.0,1.0,80,0.00,,CLR,0.00,VWS V14.01,2013-01-03 13:09:00,
2013-01-03 08:14:00,21.1,15.6,30.12,WNW,290,0.0,2.0,79,0.00,,CLR,0.00,VWS V14.01,2013-01-03 13:14:00,
2013-01-03 08:19:00,21.6,15.8,30.12,WNW,290,0.0,0.0,78,0.00,,CLR,0.00,VWS V14.01,2013-01-03 13:19:00,
2013-01-03 08:24:00,21.9,15.5,30.12,WNW,285,0.0,1.0,76,0.00,,CLR,0.00,VWS V14.01,2013-01-03 13:24:00,
2013-01-03 08:29:00,22.2,15.5,30.12,WNW,285,0.0,0.0,75,0.00,,CLR,0.00,VWS V14.01,2013-01-03 13:29:00,
2013-01-03 08:34:00,22.7,15.7,30.12,WNW,284,2.0,2.0,74,0.00,,CLR,0.00,VWS V14.01,2013-01-03 13:34:00,
2013-01-03 08:39:00,23.0,15.6,30.12,WNW,283,0.0,2.0,73,0.00,,CLR,0.00,VWS V14.01,2013-01-03 13:39:00,
2013-01-03 08:44:00,23.5,15.8,30.12,NW,310,0.0,4.0,72,0.00,,CLR,0.00,VWS V14.01,2013-01-03 13:44:00,
2013-01-03 08:49:00,23.8,15.5,30.12,WSW,240,2.0,5.0,70,0.00,,CLR,0.00,VWS V14.01,2013-01-03 13:49:00,
2013-01-03 08:54:00,24.1,15.4,30.12,West,281,1.0,4.0,69,0.00,,CLR,0.00,VWS V14.01,2013-01-03 13:54:00,
2013-01-03 08:59:00,24.4,15.4,30.12,West,262,0.0,5.0,68,0.00,,CLR,0.00,VWS V14.01,2013-01-03 13:59:00,
2013-01-03 09:04:00,24.7,15.7,30.12,WSW,254,2.0,6.0,68,0.00,,CLR,0.00,VWS V14.01,2013-01-03 14:04:00,
2013-01-03 09:09:00,24.8,15.1,30.13,WNW,300,0.0,4.0,66,0.00,,CLR,0.00,VWS V14.01,2013-01-03 14:09:00,
2013-01-03 09:14:00,25.3,15.6,30.13,West,264,3.0,5.0,66,0.00,,CLR,0.00,VWS V14.01,2013-01-03 14:14:00,
2013-01-03 09:19:00,25.4,15.6,30.13,WNW,283,0.0,3.0,66,0.00,,CLR,0.00,VWS V14.01,2013-01-03 14:19:00,
2013-01-03 09:24:00,25.6,15.5,30.13,NW,305,0.0,6.0,65,0.00,,CLR,0.00,VWS V14.01,2013-01-03 14:24:00,
2013-01-03 09:29:00,25.7,15.2,30.13,WSW,254,0.0,2.0,64,0.00,,CLR,0.00,VWS V14.01,2013-01-03 14:29:00,
2013-01-03 09:34:00,26.0,15.5,30.13,WNW,299,0.0,2.0,64,0.00,,CLR,0.00,VWS V14.01,2013-01-03 14:34:00,
2013-01-03 09:39:00,26.3,15.8,30.13,WNW,300,0.0,4.0,64,0.00,,CLR,0.00,VWS V14.01,2013-01-03 14:39:00,
2013-01-03 09:44:00,26.6,16.1,30.13,WSW,247,2.0,2.0,64,0.00,,CLR,0.00,VWS V14.01,2013-01-03 14:44:00,
2013-01-03 09:49:00,26.7,15.8,30.13,West,265,0.0,5.0,63,0.00,,CLR,0.00,VWS V14.01,2013-01-03 14:49:00,
2013-01-03 09:54:00,26.9,15.6,30.13,WNW,297,3.0,4.0,62,0.00,,CLR,0.00,VWS V14.01,2013-01-03 14:54:00,
2013-01-03 09:59:00,27.2,15.6,30.13,WNW,291,1.0,4.0,61,0.00,,CLR,0.00,VWS V14.01,2013-01-03 14:59:00,
2013-01-03 10:04:00,27.3,15.6,30.13,WNW,302,1.0,5.0,61,0.00,,CLR,0.00,VWS V14.01,2013-01-03 15:04:00,
2013-01-03 10:09:00,27.6,15.9,30.13,WNW,284,1.0,3.0,61,0.00,,CLR,0.00,VWS V14.01,2013-01-03 15:09:00,
2013-01-03 10:14:00,27.8,15.7,30.13,West,271,3.0,5.0,60,0.00,,CLR,0.00,VWS V14.01,2013-01-03 15:14:00,
2013-01-03 10:19:00,27.8,15.7,30.13,WSW,255,0.0,6.0,60,0.00,,CLR,0.00,VWS V14.01,2013-01-03 15:19:00,
2013-01-03 10:24:00,27.8,15.7,30.12,West,262,2.0,5.0,60,0.00,,CLR,0.00,VWS V14.01,2013-01-03 15:24:00,
2013-01-03 10:29:00,27.8,15.4,30.12,West,265,4.0,5.0,59,0.00,,CLR,0.00,VWS V14.01,2013-01-03 15:29:00,
2013-01-03 10:34:00,27.6,14.8,30.12,WSW,249,0.0,6.0,58,0.00,,CLR,0.00,VWS V14.01,2013-01-03 15:34:00,
2013-01-03 10:39:00,28.1,16.0,30.12,NW,309,4.0,6.0,60,0.00,,CLR,0.00,VWS V14.01,2013-01-03 15:39:00,
2013-01-03 10:44:00,28.2,15.3,30.12,West,263,4.0,9.0,58,0.00,,CLR,0.00,VWS V14.01,2013-01-03 15:44:00,
2013-01-03 10:50:00,28.4,15.1,30.12,NW,311,1.0,6.0,57,0.00,,CLR,0.00,VWS V14.01,2013-01-03 15:50:00,
2013-01-03 10:55:00,28.4,14.7,30.11,West,262,5.0,9.0,56,0.00,,CLR,0.00,VWS V14.01,2013-01-03 15:55:00,
2013-01-03 11:00:00,28.1,15.2,30.11,WSW,246,5.0,9.0,58,0.00,,CLR,0.00,VWS V14.01,2013-01-03 16:00:00,
2013-01-03 11:05:00,27.9,14.6,30.11,West,266,2.0,6.0,57,0.00,,CLR,0.00,VWS V14.01,2013-01-03 16:05:00,
2013-01-03 11:10:00,28.1,15.2,30.10,NW,317,2.0,6.0,58,0.00,,CLR,0.00,VWS V14.01,2013-01-03 16:10:00,
2013-01-03 11:15:00,28.4,15.5,30.10,WNW,282,2.0,7.0,58,0.00,,CLR,0.00,VWS V14.01,2013-01-03 16:15:00,
2013-01-03 11:20:00,28.7,15.8,30.10,West,278,5.0,6.0,58,0.00,,CLR,0.00,VWS V14.01,2013-01-03 16:20:00,
2013-01-03 11:25:00,28.8,15.5,30.10,WSW,255,4.0,7.0,57,0.00,,CLR,0.00,VWS V14.01,2013-01-03 16:25:00,
2013-01-03 11:30:00,28.7,15.4,30.10,West,259,6.0,9.0,57,0.00,,CLR,0.00,VWS V14.01,2013-01-03 16:30:00,
2013-01-03 11:35:00,28.5,15.2,30.10,West,268,3.0,12.0,57,0.00,,CLR,0.00,VWS V14.01,2013-01-03 16:35:00,
2013-01-03 11:40:00,28.7,15.8,30.09,West,260,6.0,8.0,58,0.00,,CLR,0.00,VWS V14.01,2013-01-03 16:40:00,
2013-01-03 11:45:00,28.7,15.4,30.09,West,270,4.0,6.0,57,0.00,,CLR,0.00,VWS V14.01,2013-01-03 16:45:00,
2013-01-03 11:50:00,28.8,15.9,30.09,WNW,290,5.0,7.0,58,0.00,,CLR,0.00,VWS V14.01,2013-01-03 16:50:00,
2013-01-03 11:55:00,28.7,15.0,30.08,WSW,246,9.0,11.0,56,0.00,,CLR,0.00,VWS V14.01,2013-01-03 16:55:00,
2013-01-03 12:00:00,28.8,16.3,30.08,West,276,0.0,6.0,59,0.00,,CLR,0.00,VWS V14.01,2013-01-03 17:00:00,
2013-01-03 12:05:00,29.3,16.0,30.08,West,279,3.0,10.0,57,0.00,,CLR,0.00,VWS V14.01,2013-01-03 17:05:00,
2013-01-03 12:10:00,29.4,16.5,30.07,West,264,6.0,9.0,58,0.00,,CLR,0.00,VWS V14.01,2013-01-03 17:10:00,
2013-01-03 12:15:00,29.1,15.8,30.07,West,266,4.0,8.0,57,0.00,,CLR,0.00,VWS V14.01,2013-01-03 17:15:00,
2013-01-03 12:20:00,29.4,16.9,30.07,WSW,240,4.0,12.0,59,0.00,,CLR,0.00,VWS V14.01,2013-01-03 17:20:00,
2013-01-03 12:25:00,29.7,16.8,30.07,WNW,288,4.0,8.0,58,0.00,,CLR,0.00,VWS V14.01,2013-01-03 17:25:00,
2013-01-03 12:30:00,29.8,16.8,30.07,WNW,301,4.0,10.0,58,0.00,,CLR,0.00,VWS V14.01,2013-01-03 17:30:00,
2013-01-03 12:35:00,29.4,16.1,30.07,West,270,2.0,8.0,57,0.00,,CLR,0.00,VWS V14.01,2013-01-03 17:35:00,
2013-01-03 12:40:00,29.4,16.1,30.06,WNW,292,10.0,12.0,57,0.00,,CLR,0.00,VWS V14.01,2013-01-03 17:40:00,
2013-01-03 12:45:00,29.7,16.4,30.06,WNW,298,3.0,6.0,57,0.00,,CLR,0.00,VWS V14.01,2013-01-03 17:45:00,
2013-01-03 12:50:00,29.8,16.0,30.06,WNW,289,7.0,11.0,56,0.00,,CLR,0.00,VWS V14.01,2013-01-03 17:50:00,
2013-01-03 12:55:00,29.8,15.6,30.05,West,262,8.0,10.0,55,0.00,,CLR,0.00,VWS V14.01,2013-01-03 17:55:00,
2013-01-03 13:00:00,29.8,15.6,30.05,WSW,250,8.0,8.0,55,0.00,,CLR,0.00,VWS V14.01,2013-01-03 18:00:00,
2013-01-03 13:05:00,29.7,15.5,30.05,West,262,10.0,11.0,55,0.00,,CLR,0.00,VWS V14.01,2013-01-03 18:05:00,
2013-01-03 13:10:00,29.8,16.0,30.05,WNW,295,2.0,6.0,56,0.00,,CLR,0.00,VWS V14.01,2013-01-03 18:10:00,
2013-01-03 13:15:00,30.0,15.0,30.05,NW,307,2.0,12.0,53,0.00,,CLR,0.00,VWS V14.01,2013-01-03 18:15:00,
2013-01-03 13:20:00,30.3,15.7,30.05,West,271,4.0,8.0,54,0.00,,CLR,0.00,VWS V14.01,2013-01-03 18:20:00,
2013-01-03 13:25:00,30.6,15.1,30.04,WSW,238,9.0,9.0,52,0.00,,CLR,0.00,VWS V14.01,2013-01-03 18:25:00,
2013-01-03 13:30:00,30.4,14.9,30.04,West,272,8.0,14.0,52,0.00,,CLR,0.00,VWS V14.01,2013-01-03 18:30:00,
2013-01-03 13:35:00,30.6,15.1,30.04,WNW,285,5.0,7.0,52,0.00,,CLR,0.00,VWS V14.01,2013-01-03 18:35:00,
2013-01-03 13:40:00,30.6,15.5,30.04,WSW,242,5.0,10.0,53,0.00,,CLR,0.00,VWS V14.01,2013-01-03 18:40:00,
2013-01-03 13:45:00,30.6,14.6,30.04,West,271,4.0,11.0,51,0.00,,CLR,0.00,VWS V14.01,2013-01-03 18:45:00,
2013-01-03 13:50:00,31.0,15.4,30.04,WNW,288,2.0,11.0,52,0.00,,CLR,0.00,VWS V14.01,2013-01-03 18:50:00,
2013-01-03 13:55:00,31.3,16.2,30.03,NW,307,6.0,8.0,53,0.00,,CLR,0.00,VWS V14.01,2013-01-03 18:55:00,
2013-01-03 14:00:00,31.6,16.0,30.03,WNW,287,8.0,8.0,52,0.00,,CLR,0.00,VWS V14.01,2013-01-03 19:00:00,
2013-01-03 14:05:00,31.8,15.8,30.02,WNW,283,6.0,10.0,51,0.00,,CLR,0.00,VWS V14.01,2013-01-03 19:05:00,
2013-01-03 14:10:00,31.6,15.1,30.02,WNW,285,8.0,9.0,50,0.00,,CLR,0.00,VWS V14.01,2013-01-03 19:10:00,
2013-01-03 14:15:00,31.5,15.5,30.02,WSW,243,5.0,10.0,51,0.00,,CLR,0.00,VWS V14.01,2013-01-03 19:15:00,
2013-01-03 14:52:00,32.1,15.6,30.02,WNW,289,6.0,7.0,50,0.00,,CLR,0.00,VWS V14.01,2013-01-03 19:52:00,
2013-01-03 14:57:00,32.1,15.1,30.02,WNW,298,1.0,8.0,49,0.00,,CLR,0.00,VWS V14.01,2013-01-03 19:57:00,
2013-01-03 15:02:00,32.1,15.1,30.02,WNW,297,5.0,5.0,49,0.00,,CLR,0.00,VWS V14.01,2013-01-03 20:02:00,
2013-01-03 15:07:00,32.5,15.9,30.02,WNW,295,3.0,6.0,50,0.00,,CLR,0.00,VWS V14.01,2013-01-03 20:07:00,
2013-01-03 15:12:00,32.2,14.7,30.02,West,272,4.0,9.0,48,0.00,,CLR,0.00,VWS V14.01,2013-01-03 20:12:00,
2013-01-03 15:17:00,31.9,14.4,30.02,West,279,5.0,8.0,48,0.00,,CLR,0.00,VWS V14.01,2013-01-03 20:17:00,
2013-01-03 15:22:00,32.1,15.1,30.02,West,267,3.0,9.0,49,0.00,,CLR,0.00,VWS V14.01,2013-01-03 20:22:00,
2013-01-03 15:27:00,32.1,15.1,30.02,NNW,330,7.0,8.0,49,0.00,,CLR,0.00,VWS V14.01,2013-01-03 20:27:00,
2013-01-03 15:32:00,32.1,15.1,30.02,West,277,7.0,9.0,49,0.00,,CLR,0.00,VWS V14.01,2013-01-03 20:32:00,
2013-01-03 15:37:00,32.1,16.0,30.02,NW,319,0.0,5.0,51,0.00,,CLR,0.00,VWS V14.01,2013-01-03 20:37:00,
2013-01-03 15:42:00,32.2,15.7,30.02,West,275,4.0,7.0,50,0.00,,CLR,0.00,VWS V14.01,2013-01-03 20:42:00,
2013-01-03 15:47:00,32.1,15.6,30.02,West,268,5.0,7.0,50,0.00,,CLR,0.00,VWS V14.01,2013-01-03 20:47:00,
2013-01-03 15:52:00,31.9,15.4,30.02,WNW,290,5.0,5.0,50,0.00,,CLR,0.00,VWS V14.01,2013-01-03 20:52:00,
2013-01-03 15:57:00,31.9,15.4,30.02,West,266,5.0,6.0,50,0.00,,CLR,0.00,VWS V14.01,2013-01-03 20:57:00,
2013-01-03 16:02:00,31.8,15.3,30.02,NW,317,0.0,5.0,50,0.00,,CLR,0.00,VWS V14.01,2013-01-03 21:02:00,
2013-01-03 16:07:00,31.6,15.1,30.03,WNW,284,6.0,8.0,50,0.00,,CLR,0.00,VWS V14.01,2013-01-03 21:07:00,
2013-01-03 16:12:00,31.5,15.0,30.03,WNW,300,6.0,7.0,50,0.00,,CLR,0.00,VWS V14.01,2013-01-03 21:12:00,
2013-01-03 16:17:00,31.3,15.3,30.03,WNW,295,1.0,5.0,51,0.00,,CLR,0.00,VWS V14.01,2013-01-03 21:17:00,
2013-01-03 16:22:00,31.2,15.2,30.03,West,267,0.0,5.0,51,0.00,,CLR,0.00,VWS V14.01,2013-01-03 21:22:00,
2013-01-03 16:27:00,31.0,15.0,30.03,West,274,1.0,8.0,51,0.00,,CLR,0.00,VWS V14.01,2013-01-03 21:27:00,
2013-01-03 16:32:00,30.9,15.4,30.03,West,264,3.0,4.0,52,0.00,,CLR,0.00,VWS V14.01,2013-01-03 21:32:00,
2013-01-03 16:37:00,30.7,14.7,30.03,West,274,7.0,9.0,51,0.00,,BKN095,0.00,VWS V14.01,2013-01-03 21:37:00,
2013-01-03 16:43:00,30.7,15.2,30.03,WSW,251,5.0,7.0,52,0.00,,BKN095,0.00,VWS V14.01,2013-01-03 21:43:00,
2013-01-03 16:48:00,30.6,15.1,30.03,West,264,0.0,2.0,52,0.00,,BKN095,0.00,VWS V14.01,2013-01-03 21:48:00,
2013-01-03 16:53:00,30.4,14.9,30.03,West,266,0.0,4.0,52,0.00,,FEW085,0.00,VWS V14.01,2013-01-03 21:53:00,
2013-01-03 16:58:00,30.3,15.2,30.03,WSW,247,5.0,5.0,53,0.00,,FEW085,0.00,VWS V14.01,2013-01-03 21:58:00,
2013-01-03 17:03:00,30.3,15.2,30.03,West,271,2.0,7.0,53,0.00,,FEW085,0.00,VWS V14.01,2013-01-03 22:03:00,
2013-01-03 17:08:00,30.3,15.2,30.03,WSW,251,4.0,6.0,53,0.00,,FEW085,0.00,VWS V14.01,2013-01-03 22:08:00,
2013-01-03 17:13:00,30.1,15.5,30.03,West,278,2.0,4.0,54,0.00,,FEW085,0.00,VWS V14.01,2013-01-03 22:13:00,
2013-01-03 17:18:00,30.0,15.4,30.03,West,263,0.0,5.0,54,0.00,,FEW085,0.00,VWS V14.01,2013-01-03 22:18:00,
2013-01-03 17:23:00,29.8,15.6,30.04,West,259,0.0,3.0,55,0.00,,FEW085,0.00,VWS V14.01,2013-01-03 22:23:00,
2013-01-03 17:28:00,29.7,15.5,30.04,WSW,250,0.0,4.0,55,0.00,,FEW085,0.00,VWS V14.01,2013-01-03 22:28:00,
2013-01-03 17:33:00,29.4,15.7,30.04,WSW,249,0.0,0.0,56,0.00,,CLR,0.00,VWS V14.01,2013-01-03 22:33:00,
2013-01-03 17:38:00,29.3,15.6,30.04,WSW,249,0.0,1.0,56,0.00,,CLR,0.00,VWS V14.01,2013-01-03 22:38:00,
2013-01-03 17:43:00,29.0,15.7,30.04,WSW,248,0.0,0.0,57,0.00,,CLR,0.00,VWS V14.01,2013-01-03 22:43:00,
2013-01-03 17:48:00,28.7,15.8,30.04,WSW,248,0.0,0.0,58,0.00,,CLR,0.00,VWS V14.01,2013-01-03 22:48:00,
2013-01-03 17:53:00,28.5,15.6,30.04,WSW,243,0.0,2.0,58,0.00,,CLR,0.00,VWS V14.01,2013-01-03 22:53:00,
2013-01-03 17:58:00,28.4,15.9,30.04,SW,230,0.0,6.0,59,0.00,,CLR,0.00,VWS V14.01,2013-01-03 22:58:00,
2013-01-03 18:03:00,28.2,15.7,30.04,WSW,243,1.0,1.0,59,0.00,,CLR,0.00,VWS V14.01,2013-01-03 23:03:00,
2013-01-03 18:08:00,28.4,16.3,30.04,WSW,257,0.0,2.0,60,0.00,,CLR,0.00,VWS V14.01,2013-01-03 23:08:00,
2013-01-03 18:13:00,28.4,16.7,30.04,WSW,255,0.0,2.0,61,0.00,,CLR,0.00,VWS V14.01,2013-01-03 23:13:00,
2013-01-03 18:18:00,28.4,16.7,30.04,SW,229,0.0,3.0,61,0.00,,CLR,0.00,VWS V14.01,2013-01-03 23:18:00,
2013-01-03 18:23:00,28.5,17.1,30.04,SW,234,0.0,1.0,62,0.00,,CLR,0.00,VWS V14.01,2013-01-03 23:23:00,
2013-01-03 18:28:00,28.5,17.1,30.04,WSW,241,0.0,2.0,62,0.00,,CLR,0.00,VWS V14.01,2013-01-03 23:28:00,
2013-01-03 18:33:00,28.5,17.1,30.04,West,265,0.0,6.0,62,0.00,,CLR,0.00,VWS V14.01,2013-01-03 23:33:00,
2013-01-03 18:38:00,28.5,17.1,30.04,SW,223,1.0,5.0,62,0.00,,CLR,0.00,VWS V14.01,2013-01-03 23:38:00,
2013-01-03 18:43:00,28.5,17.1,30.04,West,271,0.0,5.0,62,0.00,,CLR,0.00,VWS V14.01,2013-01-03 23:43:00,
2013-01-03 18:48:00,28.5,17.1,30.04,WSW,244,1.0,2.0,62,0.00,,CLR,0.00,VWS V14.01,2013-01-03 23:48:00,
2013-01-03 18:53:00,28.4,17.4,30.05,WSW,248,0.0,4.0,63,0.00,,CLR,0.00,VWS V14.01,2013-01-03 23:53:00,
2013-01-03 18:58:00,28.2,17.2,30.05,West,260,4.0,4.0,63,0.00,,CLR,0.00,VWS V14.01,2013-01-03 23:58:00,
2013-01-03 19:03:00,28.4,17.4,30.05,WSW,243,0.0,5.0,63,0.00,,CLR,0.00,VWS V14.01,2013-01-04 00:03:00,
2013-01-03 19:08:00,28.2,17.2,30.05,West,260,1.0,5.0,63,0.00,,CLR,0.00,VWS V14.01,2013-01-04 00:08:00,
2013-01-03 19:13:00,28.1,17.1,30.05,WSW,250,1.0,5.0,63,0.00,,CLR,0.00,VWS V14.01,2013-01-04 00:13:00,
2013-01-03 19:18:00,27.9,17.3,30.05,WSW,255,1.0,2.0,64,0.00,,CLR,0.00,VWS V14.01,2013-01-04 00:18:00,
2013-01-03 19:23:00,27.9,17.3,30.05,West,275,1.0,2.0,64,0.00,,CLR,0.00,VWS V14.01,2013-01-04 00:23:00,
2013-01-03 19:28:00,27.9,17.3,30.05,WSW,240,2.0,6.0,64,0.00,,CLR,0.00,VWS V14.01,2013-01-04 00:28:00,
2013-01-03 19:33:00,27.8,17.2,30.05,WSW,247,0.0,6.0,64,0.00,,BKN085,0.00,VWS V14.01,2013-01-04 00:33:00,
2013-01-03 19:38:00,27.8,17.2,30.04,WSW,258,0.0,4.0,64,0.00,,BKN085,0.00,VWS V14.01,2013-01-04 00:38:00,
2013-01-03 19:43:00,27.6,17.4,30.04,WSW,257,0.0,5.0,65,0.00,,BKN085,0.00,VWS V14.01,2013-01-04 00:43:00,
2013-01-03 19:48:00,27.6,17.4,30.04,WSW,251,4.0,4.0,65,0.00,,BKN085,0.00,VWS V14.01,2013-01-04 00:48:00,
2013-01-03 19:53:00,27.5,17.3,30.04,WSW,250,3.0,4.0,65,0.00,,SCT085,0.00,VWS V14.01,2013-01-04 00:53:00,
2013-01-03 19:58:00,27.3,17.1,30.04,West,267,0.0,5.0,65,0.00,,SCT085,0.00,VWS V14.01,2013-01-04 00:58:00,
2013-01-03 20:03:00,27.5,17.3,30.04,WSW,244,0.0,5.0,65,0.00,,SCT085,0.00,VWS V14.01,2013-01-04 01:03:00,
2013-01-03 20:08:00,27.6,17.4,30.04,WSW,245,0.0,6.0,65,0.00,,SCT085,0.00,VWS V14.01,2013-01-04 01:08:00,
2013-01-03 20:13:00,27.5,17.3,30.04,WSW,252,0.0,1.0,65,0.00,,SCT085,0.00,VWS V14.01,2013-01-04 01:13:00,
2013-01-03 20:18:00,27.3,17.1,30.04,WSW,257,2.0,2.0,65,0.00,,SCT085,0.00,VWS V14.01,2013-01-04 01:18:00,
2013-01-03 20:23:00,27.2,17.0,30.03,West,278,0.0,6.0,65,0.00,,SCT085,0.00,VWS V14.01,2013-01-04 01:23:00,
2013-01-03 20:29:00,27.2,17.4,30.03,West,267,1.0,1.0,66,0.00,,SCT085,0.00,VWS V14.01,2013-01-04 01:29:00,
2013-01-03 20:33:00,27.0,17.2,30.03,West,267,0.0,0.0,66,0.00,,SCT075,0.00,VWS V14.01,2013-01-04 01:33:00,
2013-01-03 20:38:00,26.7,16.9,30.04,West,267,0.0,0.0,66,0.00,,SCT075,0.00,VWS V14.01,2013-01-04 01:38:00,
2013-01-03 20:43:00,26.6,17.1,30.04,West,267,0.0,0.0,67,0.00,,SCT075,0.00,VWS V14.01,2013-01-04 01:43:00,
2013-01-03 20:49:00,26.3,16.9,30.04,West,267,0.0,0.0,67,0.00,,SCT075,0.00,VWS V14.01,2013-01-04 01:49:00,
2013-01-03 20:54:00,26.0,16.6,30.04,West,267,0.0,0.0,67,0.00,,BKN075,0.00,VWS V14.01,2013-01-04 01:54:00,
2013-01-03 20:59:00,25.8,16.7,30.04,West,267,0.0,0.0,68,0.00,,BKN075,0.00,VWS V14.01,2013-01-04 01:59:00,
2013-01-03 21:03:00,25.6,16.5,30.04,West,267,0.0,0.0,68,0.00,,BKN075,0.00,VWS V14.01,2013-01-04 02:03:00,
2013-01-03 21:08:00,25.4,16.7,30.03,West,267,0.0,0.0,69,0.00,,BKN075,0.00,VWS V14.01,2013-01-04 02:08:00,
2013-01-03 21:14:00,25.3,16.6,30.03,West,267,0.0,0.0,69,0.00,,BKN075,0.00,VWS V14.01,2013-01-04 02:14:00,
2013-01-03 21:19:00,25.1,16.7,30.03,West,267,0.0,0.0,70,0.00,,BKN075,0.00,VWS V14.01,2013-01-04 02:19:00,
2013-01-03 21:24:00,24.8,16.4,30.03,West,267,0.0,0.0,70,0.00,,BKN075,0.00,VWS V14.01,2013-01-04 02:24:00,
2013-01-03 21:29:00,24.5,16.1,30.03,West,267,0.0,0.0,70,0.00,,BKN075,0.00,VWS V14.01,2013-01-04 02:29:00,
2013-01-03 21:34:00,24.4,16.4,30.03,West,267,0.0,0.0,71,0.00,,BKN065,0.00,VWS V14.01,2013-01-04 02:34:00,
2013-01-03 21:39:00,24.2,16.2,30.04,West,267,0.0,0.0,71,0.00,,BKN065,0.00,VWS V14.01,2013-01-04 02:39:00,
2013-01-03 21:44:00,24.1,16.4,30.04,West,267,0.0,0.0,72,0.00,,BKN065,0.00,VWS V14.01,2013-01-04 02:44:00,
2013-01-03 21:49:00,23.9,16.5,30.04,West,267,0.0,0.0,73,0.00,,BKN065,0.00,VWS V14.01,2013-01-04 02:49:00,
2013-01-03 21:54:00,23.8,16.4,30.04,West,267,0.0,0.0,73,0.00,,OVC065,0.00,VWS V14.01,2013-01-04 02:54:00,
2013-01-03 21:59:00,23.8,16.4,30.04,West,267,0.0,0.0,73,0.00,,OVC065,0.00,VWS V14.01,2013-01-04 02:59:00,
2013-01-03 22:04:00,23.8,16.7,30.04,West,267,0.0,0.0,74,0.00,,OVC065,0.00,VWS V14.01,2013-01-04 03:04:00,
2013-01-03 22:09:00,23.8,16.7,30.04,West,267,0.0,0.0,74,0.00,,OVC065,0.00,VWS V14.01,2013-01-04 03:09:00,
2013-01-03 22:14:00,23.9,17.1,30.04,West,267,0.0,0.0,75,0.00,,OVC065,0.00,VWS V14.01,2013-01-04 03:14:00,
2013-01-03 22:19:00,23.9,17.5,30.04,West,267,0.0,0.0,76,0.00,,OVC065,0.00,VWS V14.01,2013-01-04 03:19:00,
2013-01-03 22:24:00,24.1,17.6,30.04,West,267,0.0,0.0,76,0.00,,OVC065,0.00,VWS V14.01,2013-01-04 03:24:00,
2013-01-03 22:29:00,24.2,18.0,30.04,West,267,0.0,0.0,77,0.00,,OVC065,0.00,VWS V14.01,2013-01-04 03:29:00,
2013-01-03 22:34:00,24.5,18.3,30.04,West,267,0.0,0.0,77,0.00,,OVC050,0.00,VWS V14.01,2013-01-04 03:34:00,
2013-01-03 22:39:00,24.7,18.5,30.04,West,267,0.0,0.0,77,0.00,,OVC050,0.00,VWS V14.01,2013-01-04 03:39:00,
2013-01-03 22:44:00,25.0,18.8,30.04,West,267,0.0,0.0,77,0.00,,OVC050,0.00,VWS V14.01,2013-01-04 03:44:00,
2013-01-03 22:49:00,25.3,19.1,30.04,West,267,0.0,0.0,77,0.00,,OVC050,0.00,VWS V14.01,2013-01-04 03:49:00,
2013-01-03 22:54:00,25.7,19.2,30.04,West,267,0.0,0.0,76,0.00,,OVC048,0.00,VWS V14.01,2013-01-04 03:54:00,
2013-01-03 22:59:00,26.0,19.2,30.04,West,267,0.0,0.0,75,0.00,,OVC048,0.00,VWS V14.01,2013-01-04 03:59:00,
2013-01-03 23:04:00,26.3,19.1,30.04,West,267,0.0,1.0,74,0.00,,OVC048,0.00,VWS V14.01,2013-01-04 04:04:00,
2013-01-03 23:09:00,26.6,19.1,30.04,West,267,0.0,0.0,73,0.00,,OVC048,0.00,VWS V14.01,2013-01-04 04:09:00,
2013-01-03 23:13:00,26.7,18.9,30.04,West,267,0.0,2.0,72,0.00,,OVC048,0.00,VWS V14.01,2013-01-04 04:13:00,
2013-01-03 23:19:00,26.9,19.1,30.04,West,267,0.0,0.0,72,0.00,,OVC048,0.00,VWS V14.01,2013-01-04 04:19:00,
2013-01-03 23:24:00,27.2,19.1,30.04,West,267,0.0,1.0,71,0.00,,OVC048,0.00,VWS V14.01,2013-01-04 04:24:00,
2013-01-03 23:29:00,27.3,18.8,30.04,West,259,0.0,3.0,70,0.00,,OVC048,0.00,VWS V14.01,2013-01-04 04:29:00,
2013-01-03 23:34:00,27.5,19.0,30.04,WSW,258,0.0,0.0,70,0.00,,OVC046,0.00,VWS V14.01,2013-01-04 04:34:00,
2013-01-03 23:39:00,27.5,19.0,30.04,WSW,258,0.0,2.0,70,0.00,,OVC046,0.00,VWS V14.01,2013-01-04 04:39:00,
2013-01-03 23:44:00,27.5,18.7,30.04,WSW,258,0.0,1.0,69,0.00,,OVC046,0.00,VWS V14.01,2013-01-04 04:44:00,
2013-01-03 23:49:00,27.6,18.8,30.04,WSW,258,0.0,1.0,69,0.00,,OVC046,0.00,VWS V14.01,2013-01-04 04:49:00,
2013-01-03 23:54:00,27.6,19.1,30.03,WSW,258,0.0,0.0,70,0.00,,OVC044,0.00,VWS V14.01,2013-01-04 04:54:00,
2013-01-03 23:59:00,27.6,19.1,30.03,WSW,258,0.0,1.0,70,0.00,,OVC044,0.00,VWS V14.01,2013-01-04 04:59:00,